TimeCDT,TemperatureF,Dew PointF,Humidity,Sea Level PressureIn,VisibilityMPH,Wind Direction,Wind SpeedMPH,Gust SpeedMPH,PrecipitationIn,Events,Conditions,WindDirDegrees,DateUTC
12:15 AM,48.2,35.6,62,29.90,10.0,South,9.2,-,N/A,,Clear,170,2012-09-19 05:15:00
12:35 AM,46.4,37.4,71,29.89,10.0,South,9.2,-,N/A,,Clear,170,2012-09-19 05:35:00
12:55 AM,48.2,37.4,66,29.89,10.0,South,9.2,-,N/A,,Clear,180,2012-09-19 05:55:00
1:15 AM,50.0,37.4,62,29.88,10.0,South,10.4,-,N/A,,Clear,190,2012-09-19 06:15:00
1:35 AM,51.8,37.4,58,29.88,10.0,South,10.4,-,N/A,,Clear,180,2012-09-19 06:35:00
1:55 AM,51.8,39.2,62,29.88,10.0,South,9.2,-,N/A,,Clear,180,2012-09-19 06:55:00
2:15 AM,51.8,39.2,62,29.87,10.0,South,9.2,-,N/A,,Clear,180,2012-09-19 07:15:00
2:35 AM,53.6,39.2,58,29.86,10.0,South,9.2,-,N/A,,Clear,180,2012-09-19 07:35:00
2:55 AM,53.6,39.2,58,29.86,10.0,South,10.4,17.3,N/A,,Clear,180,2012-09-19 07:55:00
3:15 AM,53.6,39.2,58,29.85,10.0,South,10.4,16.1,N/A,,Clear,170,2012-09-19 08:15:00
3:35 AM,53.6,39.2,58,29.84,10.0,South,10.4,17.3,N/A,,Clear,180,2012-09-19 08:35:00
3:55 AM,53.6,39.2,58,29.83,10.0,South,10.4,-,N/A,,Clear,180,2012-09-19 08:55:00
4:15 AM,53.6,41.0,62,29.83,10.0,South,9.2,-,N/A,,Clear,190,2012-09-19 09:15:00
4:55 AM,51.8,41.0,67,29.81,10.0,South,10.4,-,N/A,,Clear,190,2012-09-19 09:55:00
5:15 AM,51.8,41.0,67,29.81,10.0,South,8.1,-,N/A,,Clear,190,2012-09-19 10:15:00
5:35 AM,51.8,41.0,67,29.81,10.0,SSW,8.1,-,N/A,,Clear,200,2012-09-19 10:35:00
5:55 AM,53.6,42.8,67,29.80,10.0,SSW,9.2,-,N/A,,Clear,200,2012-09-19 10:55:00
6:15 AM,53.6,42.8,67,29.79,10.0,SSW,11.5,-,N/A,,Clear,200,2012-09-19 11:15:00
6:35 AM,53.6,42.8,67,29.80,10.0,SSW,9.2,-,N/A,,Clear,210,2012-09-19 11:35:00
6:55 AM,53.6,42.8,67,29.79,10.0,SSW,10.4,-,N/A,,Clear,200,2012-09-19 11:55:00
7:15 AM,53.6,42.8,67,29.79,10.0,SSW,11.5,-,N/A,,Clear,210,2012-09-19 12:15:00
7:35 AM,53.6,44.6,72,29.79,10.0,SW,11.5,19.6,N/A,,Clear,220,2012-09-19 12:35:00
7:55 AM,53.6,44.6,72,29.80,10.0,SW,12.7,20.7,N/A,,Clear,220,2012-09-19 12:55:00
8:15 AM,53.6,44.6,72,29.80,10.0,SW,15.0,-,N/A,,Clear,220,2012-09-19 13:15:00
8:35 AM,55.4,44.6,67,29.79,10.0,SW,12.7,19.6,N/A,,Clear,220,2012-09-19 13:35:00
8:55 AM,57.2,44.6,63,29.79,10.0,SW,12.7,18.4,N/A,,Clear,220,2012-09-19 13:55:00
9:15 AM,59.0,46.4,63,29.79,10.0,SW,11.5,-,N/A,,Clear,230,2012-09-19 14:15:00
9:55 AM,64.4,46.4,52,29.78,10.0,SW,15.0,-,N/A,,Clear,230,2012-09-19 14:55:00
10:15 AM,66.2,46.4,49,29.78,10.0,WSW,12.7,20.7,N/A,,Clear,240,2012-09-19 15:15:00
10:35 AM,66.2,46.4,49,29.78,10.0,SW,12.7,18.4,N/A,,Clear,230,2012-09-19 15:35:00
10:55 AM,69.8,44.6,40,29.78,10.0,WSW,17.3,-,N/A,,Clear,240,2012-09-19 15:55:00
11:15 AM,71.6,46.4,41,29.77,10.0,WSW,11.5,18.4,N/A,,Clear,250,2012-09-19 16:15:00
11:35 AM,73.4,46.4,38,29.77,10.0,WSW,15.0,-,N/A,,Clear,240,2012-09-19 16:35:00
11:55 AM,77.0,42.8,29,29.76,10.0,WSW,15.0,23.0,N/A,,Clear,250,2012-09-19 16:55:00
12:15 PM,77.0,42.8,29,29.76,10.0,WSW,16.1,-,N/A,,Clear,250,2012-09-19 17:15:00
12:35 PM,78.8,42.8,28,29.76,10.0,West,15.0,20.7,N/A,,Clear,260,2012-09-19 17:35:00
12:55 PM,78.8,41.0,26,29.77,10.0,WNW,19.6,32.2,N/A,,Clear,290,2012-09-19 17:55:00
1:15 PM,78.8,41.0,26,29.78,-9999.0,WNW,19.6,31.1,N/A,,Clear,300,2012-09-19 18:15:00
1:35 PM,78.8,39.2,24,29.78,10.0,NW,20.7,31.1,N/A,,Clear,320,2012-09-19 18:35:00
1:55 PM,78.8,39.2,24,29.79,10.0,NW,21.9,29.9,N/A,,Clear,320,2012-09-19 18:55:00
2:15 PM,78.8,39.2,24,29.79,10.0,NW,17.3,25.3,N/A,,Clear,320,2012-09-19 19:15:00
2:35 PM,78.8,39.2,24,29.80,10.0,NW,21.9,32.2,N/A,,Clear,320,2012-09-19 19:35:00
2:55 PM,77.0,39.2,26,29.81,10.0,NW,25.3,31.1,N/A,,Clear,310,2012-09-19 19:55:00
3:15 PM,77.0,37.4,24,29.81,10.0,NW,19.6,28.8,N/A,,Clear,320,2012-09-19 20:15:00
3:35 PM,77.0,33.8,21,29.81,10.0,NW,23.0,34.5,N/A,,Clear,310,2012-09-19 20:35:00
3:55 PM,77.0,33.8,21,29.82,10.0,NNW,17.3,34.5,N/A,,Clear,330,2012-09-19 20:55:00
4:15 PM,75.2,32.0,21,29.83,10.0,NW,18.4,28.8,N/A,,Clear,320,2012-09-19 21:15:00
4:35 PM,75.2,32.0,21,29.83,10.0,North,-9999.0,-,N/A,,Clear,0,2012-09-19 21:35:00
4:55 PM,75.2,32.0,21,29.84,10.0,NW,20.7,29.9,N/A,,Clear,320,2012-09-19 21:55:00
5:15 PM,73.4,32.0,22,29.84,10.0,NW,19.6,31.1,N/A,,Clear,320,2012-09-19 22:15:00
5:35 PM,71.6,32.0,23,29.85,10.0,NW,21.9,31.1,N/A,,Clear,320,2012-09-19 22:35:00
5:55 PM,71.6,32.0,23,29.86,10.0,NW,18.4,27.6,N/A,,Clear,320,2012-09-19 22:55:00
6:15 PM,69.8,30.2,23,29.86,10.0,NW,16.1,24.2,N/A,,Clear,320,2012-09-19 23:15:00
6:35 PM,69.8,30.2,23,29.88,10.0,NNW,15.0,25.3,N/A,,Clear,330,2012-09-19 23:35:00
6:55 PM,68.0,30.2,24,29.89,10.0,NW,12.7,19.6,N/A,,Clear,320,2012-09-19 23:55:00
7:15 PM,66.2,28.4,24,29.89,10.0,NNW,15.0,21.9,N/A,,Clear,330,2012-09-20 00:15:00
7:35 PM,66.2,28.4,24,29.90,10.0,NW,13.8,-,N/A,,Clear,310,2012-09-20 00:35:00
8:15 PM,64.4,28.4,26,29.91,10.0,WNW,9.2,18.4,N/A,,Clear,300,2012-09-20 01:15:00
8:35 PM,64.4,28.4,26,29.91,10.0,NNW,17.3,-,N/A,,Clear,340,2012-09-20 01:35:00
8:55 PM,62.6,26.6,26,29.92,10.0,NNW,18.4,25.3,N/A,,Clear,330,2012-09-20 01:55:00
9:15 PM,62.6,26.6,26,29.94,10.0,NNW,15.0,-,N/A,,Clear,330,2012-09-20 02:15:00
9:35 PM,62.6,26.6,26,29.94,10.0,NNW,13.8,19.6,N/A,,Clear,330,2012-09-20 02:35:00
9:55 PM,60.8,26.6,27,29.95,10.0,NNW,12.7,-,N/A,,Clear,330,2012-09-20 02:55:00
10:15 PM,60.8,26.6,27,29.95,10.0,NNW,11.5,-,N/A,,Clear,330,2012-09-20 03:15:00
10:35 PM,59.0,26.6,29,29.96,10.0,NNW,9.2,16.1,N/A,,Clear,330,2012-09-20 03:35:00
10:55 PM,57.2,26.6,31,29.95,10.0,NW,8.1,-,N/A,,Clear,320,2012-09-20 03:55:00
11:35 PM,53.6,28.4,38,29.97,10.0,NW,8.1,-,N/A,,Clear,310,2012-09-20 04:35:00
11:55 PM,55.4,28.4,36,29.97,10.0,NW,9.2,-,N/A,,Clear,310,2012-09-20 04:55:00